ATLAS 5 CENTAUR DEB, 44645

Orbit data source: Space-Track

ATLAS 5 CENTAUR DEB, 44645 is space debris in HEO originally from a launch on Wed, 17 Oct 2018 UTC launched from the Air Force Eastern Test Range (AFETR). Debris objects in space refer to the collection of defunct objects orbiting the Earth. Examples of debris include non-operational satellites, rocket bodies, and fragments generated from explosions, collisions, or faulty payload assembly.

Loading next visibility...
Identifier
44645, 2018-079F
Orbit
HEO
Country
Flag of USUS
Related business
Flag of USUnited Launch Alliance/Lockheed Martin (US)
Manufacturer
ULA Decatur
Mission
Spacecraft
Bus & Motor
Unknown
Mass
Unknown
Launch date (UTC)
2018-10-17 (7 years ago)
Launch vehicle
Unknown
Launch site
Air Force Eastern Test Range (AFETR)
Object type
Payload
Rocket body
Debris
Shape & HBR
Unknown
Radar Cross Section
RCS unknown

Expand to show TLE details & history
Last TLE update: 1 day ago

TLE from 1 day ago
0 ATLAS 5 CENTAUR DEB
1 44645U 18079F   25258.36556725 -.00000206  00000-0  00000-0 0  9998
2 44645  13.1629  41.3006 4635402 306.2991  19.1870  1.89805913 47826
Epoch: 2025-09-15T08:46Z
TLE epoch observation values (Epoch: 2025-09-15T08:46:25.01Z)
Latitude
-0.00017°
Longitude
-84.83469°
Altitude
10,574.604 km
Speed
5.706 km/s
True Right ascension
02h 45m 21s
True Declination
0° 00' 01"
Sunlit
Object was in daylight at epoch
Visualization orbit readout
Latitude
Unknown
Longitude
Unknown
Altitude
Unknown
Speed
Unknown
Apparent Right ascension
Unknown
Apparent Declination
Unknown
Sunlit
N/A
Visualization observer readout
Local Sidereal Time
07:59:33
Azimuth
Unknown
Elevation
Unknown
Doppler factor
Unknown
Orbital elements
Apogee altitude
33,952.369 km
Perigee altitude
8,404.986 km
Semi-major axis
27,556.814 km
Eccentricity
0.46354
Inclination
13.1629°
RAAN
41.3006°
Arg. of periapsis
306.2991°
True anomaly
53.67563°
Mean anomaly
19.187°
Eccentric anomaly
34.06259°
Mean motion
0.47446 °/min
Orbital period
758.76 mins
BSTAR
0
Loading maneuver chart data...
Computing Atmospheric mass density...

Documentation

Showing up to 5 results
|